Weather History for KLNK - November, 2011

Change the Weather History Date:

Friday, November 25, 2011

  Actual Average Record
Temperature  
Mean Temperature 52 °F 34 °F  
Max Temperature 58 °F 45 °F 77 °F (1960)
Min Temperature 46 °F 23 °F 4 °F (1993)
Degree Days  
Heating Degree Days 13 31  
Month to date heating degree days 590 619  
Since 1 July heating degree days 1068 1098  
Cooling Degree Days 0 0  
Month to date cooling degree days 0 0  
Year to date cooling degree days 1296 1173  
Growing Degree Days 2 (Base 50)    
Moisture  
Dew Point 46 °F    
Average Humidity 80    
Maximum Humidity 93    
Minimum Humidity 67    
Precipitation  
Precipitation 0.05 in 0.04 in 0.95 in (1944)
Month to date precipitation 1.66 1.23  
Year to date precipitation 27.59 27.80  
Snow  
Snow 0.00 in 0.10 in - ()
Month to date snowfall T 1.5  
Since 1 July snowfall T 2.2  
Snow Depth 0.00 in    
Sea Level Pressure  
Sea Level Pressure 29.72 in    
Wind  
Wind Speed 11 mph (SSW)    
Max Wind Speed 23 mph    
Max Gust Speed 32 mph    
Visibility 7 miles    
Events Rain    
T = Trace of Precipitation, MM = Missing Value Source: NWS Daily Summary

Daily Weather History Graph

Daily Weather History Graph

Search for Another Location

Airport or City:

Trip Planner

Search our weather history database for the weather conditions in past years. The results will help you decide how hot, cold, wet, or windy it might be!

Date:

Astronomy

Nov. 25, 2011 Rise Set
Actual Time 7:25 AM CST 5:02 PM CST
Civil Twilight 6:55 AM CST 5:32 PM CST
Nautical Twilight 6:21 AM CST 6:06 PM CST
Astronomical Twilight 5:48 AM CST 6:38 PM CST
Moon 7:55 AM CST (11/25) 5:30 PM CST (11/25)
Length of Visible Light 10h 37m
Length of Day
9h 36m
New Moon, 0% of the Moon is Illuminated
Nov 25
New Moon
Dec 2
First Quarter
Dec 10
Full
Dec 17
Last Quarter
Dec 24
New

Hourly Weather History & Observations

Time (CST) Temp. Windchill Dew Point Humidity Pressure Visibility Wind Dir Wind Speed Gust Speed Precip Events Conditions
12:54 AM 50.0 °F - 44.6 °F 82% 29.80 in 10.0 mi South 13.8 mph - N/A   Clear
1:54 AM 48.9 °F - 45.0 °F 86% 29.79 in 10.0 mi South 13.8 mph - N/A   Clear
2:54 AM 48.0 °F - 45.0 °F 89% 29.78 in 8.0 mi South 12.7 mph - N/A   Clear
3:54 AM 46.4 °F 41.1 °F 44.6 °F 93% 29.78 in 7.0 mi South 11.5 mph - N/A   Clear
4:54 AM 46.4 °F 41.9 °F 44.6 °F 93% 29.78 in 6.0 mi South 9.2 mph - N/A   Clear
5:54 AM 46.9 °F - 45.0 °F 93% 29.77 in 5.0 mi South 12.7 mph - N/A   Mostly Cloudy
6:54 AM 48.9 °F - 46.0 °F 90% 29.76 in 5.0 mi South 11.5 mph - N/A   Overcast
7:54 AM 50.0 °F - 46.0 °F 86% 29.76 in 4.0 mi SSW 8.1 mph - N/A   Overcast
8:33 AM 51.8 °F - 46.4 °F 82% 29.77 in 4.0 mi South 13.8 mph - N/A   Overcast
8:54 AM 51.1 °F - 46.9 °F 86% 29.77 in 4.0 mi South 13.8 mph - N/A   Overcast
9:54 AM 53.1 °F - 48.0 °F 83% 29.75 in 4.0 mi South 12.7 mph - N/A   Haze
10:54 AM 54.0 °F - 46.9 °F 77% 29.74 in 5.0 mi South 17.3 mph - N/A   Haze
11:03 AM 53.6 °F - 46.4 °F 77% 29.74 in 5.0 mi South 16.1 mph - N/A   Haze
11:54 AM 55.0 °F - 46.9 °F 74% 29.71 in 6.0 mi South 20.7 mph 27.6 mph N/A   Haze
12:54 PM 57.0 °F - 46.9 °F 69% 29.68 in 7.0 mi SSW 12.7 mph - N/A   Scattered Clouds
1:54 PM 57.0 °F - 46.9 °F 69% 29.68 in 7.0 mi SSW 16.1 mph 23.0 mph N/A   Mostly Cloudy
2:50 PM 57.2 °F - 46.4 °F 67% 29.65 in 8.0 mi South 17.3 mph 24.2 mph N/A   Mostly Cloudy
2:54 PM 57.2 °F - 46.4 °F 67% 29.65 in 8.0 mi South 16.1 mph 24.2 mph N/A   Mostly Cloudy
3:16 PM 57.2 °F - 46.4 °F 67% 29.65 in 8.0 mi SSW 18.4 mph 25.3 mph N/A   Mostly Cloudy
3:54 PM 57.9 °F - 46.9 °F 67% 29.65 in 8.0 mi SSW 11.5 mph - N/A   Clear
4:54 PM 55.0 °F - 46.9 °F 74% 29.65 in 8.0 mi SSW 4.6 mph - N/A   Clear
5:54 PM 53.1 °F - 46.0 °F 77% 29.65 in 9.0 mi Calm Calm - 0.00 in Rain Light Rain
6:54 PM 52.0 °F - 48.9 °F 89% 29.64 in 7.0 mi South 10.4 mph - 0.02 in Rain Light Rain
7:54 PM 51.1 °F - 44.1 °F 77% 29.65 in 10.0 mi SSW 10.4 mph - 0.02 in Rain Light Rain
8:54 PM 50.0 °F - 44.1 °F 80% 29.67 in 10.0 mi SSW 6.9 mph - 0.01 in   Overcast
9:54 PM 48.9 °F - 43.0 °F 80% 29.69 in 10.0 mi South 5.8 mph - N/A   Overcast
10:54 PM 46.9 °F - 42.1 °F 83% 29.72 in 10.0 mi South 8.1 mph - N/A   Overcast
11:54 PM 48.0 °F - 39.9 °F 74% 29.70 in 10.0 mi South 5.8 mph 32.2 mph N/A   Partly Cloudy